Location: ??????????
(42.1626°N, 44.1160°E)
Time: 13:33:18
(UTC+00:00)

BREEZE-M DEB (TANK) - Pass Details

Date: 03 March 2021
Orbit: 410 x 14910 km, 45.9° (Epoch: 20 April)

Event Time Altitude Azimuth Distance (km) Brightness Sun altitude
Rises 17:28:42 0° 284° (WNW) 9,272 10.3 -28.8°
Reaches altitude 10° 17:37:38 10° 286° (WNW) 6,068 9.0 -30.3°
Enters shadow 17:50:08 74° 333° (NNW) 1,090 4.2 -32.5°
